Location: Dover
(39.1580°N, 75.5250°W)
Time: 15:14:11
(UTC-04:00)

ISS - All Passes

Search period start: 01 July 2015 00:00
Search period end: 11 July 2015 00:00
Orbit: 398 x 403 km, 51.6° (Epoch: 01 July)

Date Brightness Start Highest point End Pass type
(mag) Time Alt. Az. Time Alt. Az. Time Alt. Az.
01 Jul - 08:52:54 10° S 08:55:24 21° SE 08:57:59 10° E daylight
01 Jul - 10:28:36 10° WSW 10:31:40 37° NNW 10:34:44 10° NE daylight
01 Jul - 12:07:33 10° NW 12:08:48 12° NNW 12:10:00 10° N daylight
01 Jul - 15:20:56 10° NNW 15:23:40 25° NNE 15:26:25 10° E daylight
01 Jul - 16:57:06 10° WNW 17:00:10 38° SW 17:03:10 10° SSE daylight
02 Jul - 08:01:31 10° SE 08:02:07 10° SE 08:02:52 10° ESE daylight
02 Jul - 09:34:54 10° WSW 09:38:08 73° NW 09:41:23 10° NE daylight
02 Jul - 11:13:01 10° WNW 11:15:01 15° NNW 11:16:58 10° NNE daylight
02 Jul - 14:27:46 10° NNW 14:29:59 17° NNE 14:32:12 10° ENE daylight
02 Jul - 16:03:30 10° NW 16:06:45 85° SW 16:09:58 10° SE daylight
03 Jul - 08:41:32 10° SW 08:44:40 52° SE 08:47:51 10° ENE daylight
03 Jul - 10:18:42 10° WNW 10:21:17 21° NNW 10:23:50 10° NNE daylight
03 Jul - 13:34:41 10° NNW 13:36:12 13° NNE 13:37:45 10° NE daylight
03 Jul - 15:10:05 10° NW 15:13:14 47° NE 15:16:22 10° ESE daylight
03 Jul - 16:47:14 10° W 16:49:23 16° SW 16:51:28 10° S daylight
04 Jul - 07:48:36 10° S 07:51:18 25° SE 07:54:02 10° ENE daylight
04 Jul - 09:24:36 10° W 09:27:37 33° NNW 09:30:36 10° NE daylight
04 Jul - 11:03:45 10° NNW 11:04:47 11° NNW 11:05:47 10° N daylight
04 Jul - 12:41:48 10° N 12:42:21 10° N 12:42:57 10° NNE daylight
04 Jul - 14:16:47 10° NNW 14:19:37 27° NNE 14:22:27 10° E daylight
04 Jul - 15:53:04 10° WNW 15:56:02 33° SW 15:58:58 10° SSE daylight
05 Jul - 06:56:35 10° SSE 06:57:57 12° SE 06:59:26 10° ESE daylight
05 Jul - 08:30:48 10° WSW 08:34:01 63° NW 08:37:15 10° NE daylight
05 Jul - 10:09:06 10° NW 10:10:57 14° NNW 10:12:46 10° NNE daylight
05 Jul - 13:23:34 10° NNW 13:25:54 18° NNE 13:28:15 10° ENE daylight
05 Jul - 14:59:22 10° NW 15:02:36 72° SW 15:05:49 10° SE daylight
06 Jul - 07:37:18 10° SW 07:40:31 62° SE 07:43:43 10° ENE daylight
06 Jul - 09:14:41 10° WNW 09:17:09 19° NNW 09:19:36 10° NNE daylight
06 Jul - 12:30:25 10° NNW 12:32:05 13° NNE 12:33:48 10° NE daylight
06 Jul - 14:05:53 10° NW 14:09:04 55° NE 14:12:15 10° ESE daylight
06 Jul - 15:43:21 10° W 15:45:11 14° SW 15:46:55 10° SSW daylight
07 Jul - 06:44:13 10° SSW 06:47:04 29° SE 06:49:57 10° ENE daylight
07 Jul - 08:20:31 10° W 08:23:26 30° NNW 08:26:21 10° NE daylight
07 Jul - 09:59:49 10° NNW 10:00:39 11° N 10:01:27 10° N daylight
07 Jul - 11:37:24 10° N 11:38:13 11° N 11:39:04 10° NNE daylight
07 Jul - 13:12:31 10° NW 13:15:26 30° NNE 13:18:22 10° E daylight
07 Jul - 14:48:57 10° WNW 14:51:48 28° SW 14:54:36 10° SSE daylight
08 Jul - 05:51:52 10° SSE 05:53:40 14° SE 05:55:35 10° E daylight
08 Jul - 07:26:36 10° WSW 07:29:47 54° NW 07:32:59 10° NE daylight
08 Jul - 09:05:04 10° NW 09:06:46 13° NNW 09:08:26 10° NNE daylight
08 Jul - 12:19:14 10° NNW 12:21:42 20° NNE 12:24:11 10° ENE daylight
08 Jul - 13:55:08 10° WNW 13:58:20 61° SW 14:01:32 10° SE daylight
09 Jul - 06:32:59 10° SW 06:36:13 73° SE 06:39:28 10° NE daylight
09 Jul - 08:10:34 10° WNW 08:12:56 18° NNW 08:15:15 10° NNE daylight
09 Jul - 11:26:02 10° NNW 11:27:52 14° NNE 11:29:44 10° NE daylight
09 Jul - 13:01:34 10° NW 13:04:48 64° NE 13:08:00 10° ESE daylight
09 Jul - 14:39:27 10° WSW 14:40:51 12° SW 14:42:07 10° SSW daylight
10 Jul - 05:39:46 10° SSW 05:42:43 33° SE 05:45:43 10° ENE daylight
10 Jul - 07:16:18 10° W 07:19:08 27° NNW 07:21:59 10° NNE daylight
10 Jul - 08:55:50 10° NNW 08:56:24 10° N 08:56:57 10° N daylight
10 Jul - 10:32:56 10° N 10:33:58 11° NNE 10:35:02 10° NNE daylight
10 Jul - 12:08:08 10° NW 12:11:08 34° NNE 12:14:08 10° E daylight
10 Jul - 13:44:43 10° WNW 13:47:27 24° SW 13:50:06 10° S daylight
